Location: Invercargill
(46.4000°S, 168.3500°E)
Time: 19:45:44
(UTC+12:00)

Cosmos 2369 Rocket - Pass Details

Date: 14 May 2021
Orbit: 827 x 854 km, 71.0° (Epoch: 14 June)

Event Time Altitude Azimuth Distance (km) Brightness Sun altitude
Rises 21:03:44 0° 208° (SSW) 3,419 5.8 -37.5°
Reaches altitude 10° 21:06:12 10° 209° (SSW) 2,475 5.0 -37.9°
Enters shadow 21:07:47 19° 210° (SSW) 1,889 4.3 -38.2°
